Location: Mattawa
(46.3175°N, 78.7022°W)
Time: 23:38:14
(UTC-04:00)

ISS - Visible Passes

Search period start: 25 September 2017 00:00
Search period end: 05 October 2017 00:00
Orbit: 401 x 407 km, 51.6° (Epoch: 26 September)

Date Brightness Start Highest point End Pass type
(mag) Time Alt. Az. Time Alt. Az. Time Alt. Az.
25 Sep -1.9 19:55:03 10° SSE 19:56:49 14° SE 19:57:35 13° ESE visible
25 Sep -1.2 21:29:34 10° WSW 21:30:17 15° WSW 21:30:17 15° WSW visible
26 Sep -3.6 20:37:22 10° SW 20:40:33 49° SE 20:40:35 49° SE visible
27 Sep -2.8 19:45:26 10° SSW 19:48:18 28° SE 19:50:42 13° E visible
27 Sep -2.0 21:21:24 10° W 21:23:22 32° W 21:23:22 32° W visible
28 Sep -3.9 20:28:56 10° WSW 20:32:13 84° NNW 20:33:19 39° ENE visible
28 Sep -0.2 22:05:58 10° WNW 22:05:59 10° WNW 22:05:59 10° WNW visible
29 Sep -3.7 19:36:38 10° SW 19:39:51 59° SSE 19:43:05 10° ENE visible
29 Sep -2.2 21:13:21 10° W 21:15:48 34° NW 21:15:48 34° NW visible
30 Sep -3.1 20:20:44 10° W 20:23:56 50° NNW 20:25:32 25° NE visible
30 Sep -0.3 21:57:53 10° WNW 21:58:11 12° WNW 21:58:11 12° WNW visible
01 Oct -3.6 19:28:12 10° WSW 19:31:28 73° NNW 19:34:45 10° ENE visible
01 Oct -2.1 21:05:18 10° WNW 21:07:50 30° NNW 21:07:50 30° NNW visible
02 Oct -2.6 20:12:38 10° W 20:15:42 36° N 20:17:26 20° NE visible
02 Oct -0.4 21:49:38 10° WNW 21:50:04 13° NW 21:50:04 13° NW visible
03 Oct -2.9 19:19:59 10° W 19:23:08 45° NNW 19:26:19 10° ENE visible
03 Oct -2.2 20:57:07 10° WNW 20:59:37 29° NNW 20:59:37 29° NNW visible
04 Oct -2.4 20:04:30 10° WNW 20:07:28 31° N 20:09:09 19° NE visible
04 Oct -0.5 21:41:14 10° WNW 21:41:47 14° NW 21:41:47 14° NW visible
